Bowling Green, KY

5:43 PM CST on December 11, 2017 (GMT -0600)
Bowling Green-Warren County Regional

Weather History for KBWG - March, 2014

Change the Weather History Date:

Sunday, March 23, 2014

  Actual Average Record
Temperature  
Mean Temperature 42 °F 51 °F  
Max Temperature 51 °F 62 °F 90 °F (1910)
Min Temperature 33 °F 39 °F 4 °F (1885)
Degree Days  
Heating Degree Days 23 15  
Month to date heating degree days 499 414  
Since 1 July heating degree days 4108 3612  
Cooling Degree Days 0 0  
Month to date cooling degree days 0 0  
Year to date cooling degree days 0 0  
Moisture  
Dew Point 24 °F    
Average Humidity 48    
Maximum Humidity 64    
Minimum Humidity 31    
Precipitation  
Precipitation 0.00 in 0.15 in 1.22 in (1975)
Month to date precipitation 2.93 3.21  
Year to date precipitation 10.10 10.78  
Snow  
Snow 0.00 in 0.00 in 0.50 in (1906)
Month to date snowfall 4.8 0.8  
Since 1 July snowfall 10.1 8.6  
Snow Depth 0.00 in    
Sea Level Pressure  
Sea Level Pressure 30.25 in    
Wind  
Wind Speed 8 mph (North)    
Max Wind Speed 15 mph    
Max Gust Speed 23 mph    
Visibility 10 miles    
Events      
T = Trace of Precipitation, MM = Missing Value Source: NWS Daily Summary

Daily Weather History Graph

Daily Weather History Graph

Search for Another Location

Airport or City:

Trip Planner

Search our weather history database for the weather conditions in past years. The results will help you decide how hot, cold, wet, or windy it might be!

Date:

Astronomy

Mar. 23, 2014 Rise Set
Actual Time 6:44 AM CDT 7:00 PM CDT
Civil Twilight 6:18 AM CDT 7:26 PM CDT
Nautical Twilight 5:48 AM CDT 7:56 PM CDT
Astronomical Twilight 5:17 AM CDT 8:27 PM CDT
Moon 1:09 AM CDT (3/23) 11:32 AM CDT (3/23)
Length of Visible Light 13h 07m
Length of Day
12h 15m
Waning Gibbous, 54% of the Moon is Illuminated
Mar 23
Waning Gibbous
Mar 23
Last Quarter
Mar 30
New
Apr 7
First Quarter
Apr 15
Full

Hourly Weather History & Observations

Time (CDT) Temp. Windchill Dew Point Humidity Pressure Visibility Wind Dir Wind Speed Gust Speed Precip Events Conditions
12:53 AM 45.0 °F 40.1 °F 30.0 °F 56% 30.16 in 10.0 mi North 9.2 mph - N/A   Partly Cloudy
1:53 AM 44.1 °F 41.5 °F 30.0 °F 58% 30.17 in 10.0 mi NNE 4.6 mph - N/A   Clear
2:53 AM 44.1 °F 39.5 °F 30.0 °F 58% 30.18 in 10.0 mi NNE 8.1 mph - N/A   Overcast
3:53 AM 43.0 °F 37.7 °F 28.9 °F 58% 30.19 in 10.0 mi NNE 9.2 mph - N/A   Overcast
4:53 AM 42.1 °F 37.7 °F 28.0 °F 58% 30.18 in 10.0 mi NNE 6.9 mph - N/A   Mostly Cloudy
5:53 AM 41.0 °F 35.8 °F 28.9 °F 62% 30.20 in 10.0 mi North 8.1 mph - N/A   Clear
6:53 AM 39.9 °F 35.1 °F 28.9 °F 65% 30.24 in 8.0 mi North 6.9 mph - N/A   Partly Cloudy
7:53 AM 39.9 °F 35.1 °F 28.9 °F 65% 30.25 in 10.0 mi North 6.9 mph - N/A   Overcast
8:53 AM 42.1 °F 36.6 °F 28.9 °F 60% 30.26 in 10.0 mi North 9.2 mph 18.4 mph N/A   Clear
9:53 AM 44.1 °F 39.0 °F 28.0 °F 53% 30.29 in 10.0 mi North 9.2 mph - N/A   Mostly Cloudy
10:53 AM 46.0 °F 41.4 °F 28.9 °F 51% 30.30 in 10.0 mi North 9.2 mph - N/A   Scattered Clouds
11:53 AM 48.0 °F - 28.0 °F 46% 30.27 in 10.0 mi NNE 10.4 mph 17.3 mph N/A   Mostly Cloudy
12:53 PM 48.0 °F - 28.0 °F 46% 30.27 in 10.0 mi North 8.1 mph - N/A   Mostly Cloudy
1:53 PM 48.9 °F - 24.1 °F 38% 30.26 in 10.0 mi NNW 12.7 mph 19.6 mph N/A   Partly Cloudy
2:53 PM 48.9 °F - 24.1 °F 38% 30.25 in 10.0 mi NNW 9.2 mph 20.7 mph N/A   Partly Cloudy
3:53 PM 50.0 °F - 21.0 °F 32% 30.24 in 10.0 mi NW 13.8 mph 20.7 mph N/A   Partly Cloudy
4:53 PM 48.9 °F - 19.9 °F 32% 30.25 in 10.0 mi NNW 9.2 mph 19.6 mph N/A   Clear
5:53 PM 46.9 °F - 19.0 °F 33% 30.26 in 10.0 mi NNW 11.5 mph 18.4 mph N/A   Clear
6:53 PM 44.1 °F 39.0 °F 18.0 °F 35% 30.28 in 10.0 mi NNW 9.2 mph - N/A   Clear
7:53 PM 42.1 °F 38.4 °F 17.1 °F 37% 30.29 in 10.0 mi NNW 5.8 mph - N/A   Clear
8:53 PM 39.0 °F 35.7 °F 17.1 °F 41% 30.31 in 10.0 mi Variable 4.6 mph - N/A   Clear
9:53 PM 37.0 °F 34.5 °F 17.1 °F 44% 30.33 in 10.0 mi North 3.5 mph - N/A   Clear
10:53 PM 36.0 °F 32.1 °F 16.0 °F 44% 30.34 in 10.0 mi North 4.6 mph - N/A   Clear
11:53 PM 35.1 °F 30.1 °F 16.0 °F 46% 30.33 in 10.0 mi Variable 5.8 mph - N/A   Clear